EW5254 Weather Reports


Display with metric or nautical units.
time (UTC)temp
F
wind
direction
speed
MPH
gust
MPH
rain 1hr
in
rain 24hr
in
rain mn
in
humidity
%
barometer
mb
20260903194526 85 161 8.0 14.0 0.00 0.00 0.00 37 1000.0
20260903193025 89 282 1.0 13.0 0.00 0.00 0.00 32 1000.2
20260903191535 89 299 4.0 11.0 0.00 0.00 0.00 32 1000.1
20260903190023 90 255 1.0 9.0 0.00 0.00 0.00 31 1000.4
20260903184519 89 288 2.0 13.0 0.00 0.00 0.00 32 1000.8
20260903183025 88 329 2.0 12.0 0.00 0.00 0.00 33 1001.0
20260903181515 88 311 3.0 13.0 0.00 0.00 0.00 35 1001.3
20260903180024 88 311 6.0 12.0 0.00 0.00 0.00 36 1001.6
20260903174513 88 302 9.0 14.0 0.00 0.00 0.00 36 1001.8
20260903173011 87 290 7.0 13.0 0.00 0.00 0.00 38 1002.1
20260903171509 87 279 7.0 14.0 0.00 0.00 0.00 38 1002.2
20260903170009 86 304 7.0 14.0 0.00 0.00 0.00 38 1002.3
20260903164503 85 232 7.0 16.0 0.00 0.00 0.00 40 1002.4
20260903163135 85 275 7.0 13.0 0.00 0.00 0.00 41 1002.3
20260903161600 84 233 8.0 15.0 0.00 0.00 0.00 42 1002.1
20260903160057 83 260 11.0 17.0 0.00 0.00 0.00 43 1002.2
20260903154554 82 243 10.0 16.0 0.00 0.00 0.00 45 1002.1
20260903153053 82 217 10.0 18.0 0.00 0.00 0.00 45 1002.2
20260903151552 81 203 9.0 16.0 0.00 0.00 0.00 46 1002.0
20260903150055 82 221 10.0 15.0 0.00 0.00 0.00 45 1002.2
20260903144551 81 254 9.0 14.0 0.00 0.00 0.00 47 1002.4
20260903143047 80 219 8.0 11.0 0.00 0.00 0.00 48 1002.3
20260903141541 78 211 6.0 12.0 0.00 0.00 0.00 51 1002.3
20260903140040 77 233 9.0 14.0 0.00 0.00 0.00 52 1002.2
20260903134539 76 190 8.0 13.0 0.00 0.00 0.00 54 1002.2
20260903133047 75 175 7.0 11.0 0.00 0.00 0.00 56 1002.1
20260903131539 74 192 6.0 13.0 0.00 0.00 0.00 56 1002.0
20260903130038 74 169 7.0 15.0 0.00 0.00 0.00 56 1001.6
20260903124538 74 179 9.0 15.0 0.00 0.00 0.00 56 1001.4
20260903123036 74 169 10.0 16.0 0.00 0.00 0.00 56 1001.3
20260903121547 75 171 9.0 16.0 0.00 0.00 0.00 55 1001.2
20260903120044 75 178 9.0 17.0 0.00 0.00 0.00 55 1001.2
20260903114536 74 179 10.0 16.0 0.00 0.00 0.00 56 1001.1
20260903113031 74 160 11.0 14.0 0.00 0.00 0.00 56 1000.9
20260903111528 75 121 8.0 16.0 0.00 0.00 0.00 55 1000.9
20260903110027 75 155 10.0 16.0 0.00 0.00 0.00 54 1000.9
20260903104525 75 164 10.0 14.0 0.00 0.00 0.00 54 1000.9
20260903103023 75 171 9.0 16.0 0.00 0.00 0.00 54 1000.9
20260903101524 76 186 9.0 14.0 0.00 0.00 0.00 54 1000.9
20260903100023 76 174 8.0 15.0 0.00 0.00 0.00 53 1001.2
20260903094520 76 170 9.0 13.0 0.00 0.00 0.00 53 1001.1
20260903093019 76 162 9.0 15.0 0.00 0.00 0.00 53 1001.1
20260903091519 76 145 11.0 21.0 0.00 0.00 0.00 53 1001.2
20260903090017 76 150 12.0 19.0 0.00 0.00 0.00 53 1001.2
20260903084517 76 150 14.0 22.0 0.00 0.00 0.00 52 1001.2
20260903083014 76 140 11.0 18.0 0.00 0.00 0.00 54 1001.2
20260903081512 76 144 13.0 19.0 0.00 0.00 0.00 54 1001.4
20260903080010 76 155 12.0 20.0 0.00 0.00 0.00 54 1001.6
20260903074511 76 161 11.0 19.0 0.00 0.00 0.00 53 1001.9
20260903073007 76 165 10.0 18.0 0.00 0.00 0.00 54 1002.0
20260903071504 76 142 13.0 20.0 0.00 0.00 0.00 53 1002.0
20260903070008 76 147 10.0 16.0 0.00 0.00 0.00 53 1002.2
20260903064600 77 162 9.0 15.0 0.00 0.00 0.00 52 1002.1
20260903063107 77 157 10.0 19.0 0.00 0.00 0.00 52 1002.3
20260903061657 77 126 10.0 21.0 0.00 0.00 0.00 52 1002.3
20260903060054 77 157 10.0 17.0 0.00 0.00 0.00 51 1002.3
20260903054600 77 164 10.0 19.0 0.00 0.00 0.00 51 1002.3
20260903053051 78 132 12.0 21.0 0.00 0.00 0.00 50 1002.3
20260903051551 77 130 11.0 19.0 0.00 0.00 0.00 48 1002.3
20260903050044 78 118 8.0 18.0 0.00 0.00 0.00 47 1002.3
20260903044551 78 171 8.0 15.0 0.00 0.00 0.00 46 1002.3
20260903043042 79 140 11.0 19.0 0.00 0.00 0.00 45 1002.4
20260903041552 79 143 9.0 17.0 0.00 0.00 0.00 43 1002.4
20260903040041 79 167 9.0 14.0 0.00 0.00 0.00 43 1002.4
20260903034540 79 148 10.0 16.0 0.00 0.00 0.00 43 1002.3
20260903033039 79 110 4.0 10.0 0.00 0.00 0.00 44 1002.2
20260903031537 79 145 3.0 6.0 0.00 0.00 0.00 45 1002.2
20260903030037 79 88 1.0 3.0 0.00 0.00 0.00 44 1002.2
20260903024536 80 88 0.0 2.0 0.00 0.00 0.00 43 1001.9
20260903023036 80 88 0.0 3.0 0.00 0.00 0.00 44 1001.8
20260903021538 80 88 0.0 6.0 0.00 0.00 0.00 45 1001.7
20260903020040 81 340 0.0 1.0 0.00 0.00 0.00 43 1001.7
20260903014546 81 340 0.0 1.0 0.00 0.00 0.00 43 1001.6
20260903013033 81 340 0.0 2.0 0.00 0.00 0.00 44 1001.5
20260903011538 82 340 0.0 2.0 0.00 0.00 0.00 43 1001.5
20260903010037 83 340 0.0 4.0 0.00 0.00 0.00 42 1001.6
20260903004533 84 13 1.0 4.0 0.00 0.00 0.00 39 1001.6
20260903003030 85 344 2.0 4.0 0.00 0.00 0.00 38 1001.4
20260903001530 86 305 3.0 6.0 0.00 0.00 0.00 37 1001.4
20260903000030 87 325 2.0 6.0 0.00 0.00 0.00 37 1001.5
20260902234527 88 325 4.0 9.0 0.00 0.00 0.00 37 1001.5
20260902233029 88 360 3.0 6.0 0.00 0.00 0.00 37 1001.6
20260902231540 88 333 3.0 6.0 0.00 0.00 0.00 31 1001.7
20260902230025 88 336 3.0 11.0 0.00 0.00 0.00 32 1001.8
20260902224524 88 331 4.0 9.0 0.00 0.00 0.00 31 1001.9
20260902223034 88 316 2.0 6.0 0.00 0.00 0.00 32 1002.0
20260902221528 87 319 2.0 6.0 0.00 0.00 0.00 33 1002.2
20260902220027 86 78 1.0 7.0 0.00 0.00 0.00 34 1002.2
20260902214522 84 65 2.0 4.0 0.00 0.00 0.00 41 1002.5
20260902213016 82 360 2.0 9.0 0.00 0.00 0.00 43 1002.9
20260902211514 81 346 1.0 5.0 0.00 0.00 0.00 44 1003.0
20260902210014 81 107 0.0 8.0 0.00 0.00 0.00 44 1003.1
20260902204512 79 161 6.0 12.0 0.00 0.19 0.00 46 1003.2
20260902203011 78 185 8.0 16.0 0.00 0.19 0.00 49 1003.6
20260902201510 79 204 10.0 16.0 0.00 0.19 0.00 48 1003.7
20260902200011 77 187 15.0 27.0 0.00 0.19 0.00 52 1003.7